DW3897 Weather Reports


Display with metric or nautical units.
time (UTC)temp
F
wind
direction
speed
MPH
gust
MPH
rain 1hr
in
rain 24hr
in
rain mn
in
humidity
%
barometer
mb
20260502163031 51 263 0.0 4.0 0.00 0.04 0.02 57 1011.8
20260502161555 51 271 2.0 8.0 0.00 0.04 0.02 60 1011.9
20260502151511 49 265 2.0 8.0 0.00 0.04 0.02 63 1012.1
20260502123034 45 273 1.0 4.0 0.00 0.04 0.02 84 1012.2
20260502121512 45 265 1.0 6.0 0.00 0.04 0.02 85 1012.2
20260502114629 44 278 1.0 3.0 0.00 0.04 0.02 88 1012.0
20260502113051 44 271 0.0 2.0 0.00 0.04 0.02 88 1012.0
20260502111531 44 270 0.0 2.0 0.00 0.04 0.02 89 1011.9
20260502110032 43 269 0.0 5.0 0.00 0.04 0.02 89 1011.7
20260502104519 43 310 1.0 4.0 0.00 0.04 0.02 90 1011.4
20260502103010 44 274 0.0 3.0 0.00 0.04 0.02 91 1011.3
20260502101611 44 278 0.0 3.0 0.00 0.04 0.02 92 1011.2
20260502100106 45 269 0.0 2.0 0.00 0.04 0.02 93 1011.2
20260502091508 46 309 0.0 1.0 0.00 0.04 0.02 95 1010.9
20260502070100 46 308 0.0 0.0 0.00 0.04 0.02 95 1011.3
20260502064547 46 308 0.0 0.0 0.00 0.04 0.02 95 1011.3
20260502063032 46 308 0.0 0.0 0.00 0.04 0.02 94 1010.9
20260502061512 46 308 0.0 0.0 0.00 0.04 0.02 94 1011.0
20260502060023 46 308 0.0 0.0 0.00 0.04 0.02 94 1011.4
20260502054609 46 308 0.0 0.0 0.02 0.04 0.02 93 1011.5
20260502053057 47 308 0.0 0.0 0.02 0.04 0.02 93 1011.7
20260502051551 47 308 0.0 0.0 0.02 0.04 0.02 93 1011.6
20260502050034 47 308 0.0 0.0 0.02 0.04 0.02 92 1011.5
20260502044533 47 308 0.0 0.0 0.02 0.02 0.00 91 1011.8
20260502043013 47 308 0.0 0.0 0.02 0.02 0.00 91 1011.4
20260502041512 47 308 0.0 0.0 0.02 0.02 0.02 90 1011.4
20260502040056 48 308 0.0 0.0 0.02 0.02 0.02 88 1011.5
20260502034552 48 308 0.0 0.0 0.00 0.00 0.00 86 1011.6
20260502033034 49 308 0.0 0.0 0.00 0.00 0.00 83 1011.4
20260502031533 50 308 0.0 0.0 0.00 0.00 0.00 79 1011.3
20260502030015 50 308 0.0 0.0 0.00 0.00 0.00 74 1011.3
20260502024516 52 308 0.0 0.0 0.00 0.00 0.00 69 1011.4
20260502023104 53 308 0.0 0.0 0.00 0.00 0.00 57 1011.2
20260502021556 53 308 0.0 0.0 0.00 0.00 0.00 55 1011.1
20260502020037 52 308 0.0 0.0 0.00 0.00 0.00 54 1011.1
20260502014537 52 308 0.0 0.0 0.00 0.00 0.00 55 1011.1
20260502013018 53 308 0.0 0.0 0.00 0.00 0.00 54 1011.0
20260502011518 54 308 0.0 0.0 0.00 0.00 0.00 52 1011.0
20260502010110 54 308 0.0 0.0 0.00 0.00 0.00 50 1010.9
20260502004559 55 308 0.0 0.0 0.00 0.00 0.00 48 1010.6
20260502003042 55 308 0.0 1.0 0.00 0.00 0.00 46 1010.5
20260502001541 55 308 0.0 0.0 0.00 0.00 0.00 45 1010.6
20260502000025 56 310 0.0 3.0 0.00 0.00 0.00 45 1010.5
20260501234523 56 290 0.0 3.0 0.00 0.00 0.00 43 1010.3
20260501233005 57 290 0.0 3.0 0.00 0.00 0.00 42 1010.1
20260501231507 57 299 1.0 5.0 0.00 0.00 0.00 41 1010.0
20260501230046 57 281 1.0 6.0 0.00 0.00 0.00 40 1009.9
20260501224546 58 290 0.0 4.0 0.00 0.00 0.00 40 1009.7
20260501223029 58 277 1.0 4.0 0.00 0.00 0.00 40 1009.6
20260501221530 58 266 1.0 7.0 0.00 0.00 0.00 38 1009.5
20260501220010 58 259 0.0 7.0 0.00 0.00 0.00 38 1009.3
20260501214509 59 276 0.0 11.0 0.00 0.00 0.00 37 1009.5
20260501213051 59 275 1.0 6.0 0.00 0.00 0.00 36 1009.2
20260501211558 59 311 2.0 9.0 0.00 0.00 0.00 35 1009.3
20260501210033 60 265 1.0 7.0 0.00 0.00 0.00 35 1009.4
20260501204544 60 292 3.0 9.0 0.00 0.00 0.00 36 1009.3
20260501203014 60 254 2.0 8.0 0.00 0.00 0.00 36 1009.3
20260501201512 60 279 1.0 5.0 0.00 0.00 0.00 35 1009.4
20260501200100 59 310 2.0 8.0 0.00 0.00 0.00 35 1009.4
20260501194559 60 313 3.0 7.0 0.00 0.00 0.00 36 1009.3
20260501193058 60 258 2.0 8.0 0.00 0.00 0.00 36 1009.4
20260501191557 59 272 2.0 7.0 0.00 0.00 0.00 38 1009.4
20260501190056 59 277 3.0 6.0 0.00 0.00 0.00 36 1009.4
20260501184554 59 269 1.0 12.0 0.00 0.00 0.00 38 1009.6
20260501183058 58 295 4.0 9.0 0.00 0.00 0.00 38 1009.9
20260501181550 57 291 0.0 4.0 0.00 0.00 0.00 41 1010.0
20260501180030 58 259 1.0 7.0 0.00 0.00 0.00 42 1010.1
20260501174529 57 283 1.0 6.0 0.00 0.00 0.00 42 1010.3
20260501173012 57 259 2.0 6.0 0.00 0.00 0.00 39 1010.3
20260501171510 57 259 3.0 6.0 0.00 0.00 0.00 39 1010.4